Regional Weather Roundup
Issued by NWS Cleveland, OH

Home | Current Version | Previous Version | Graphics & Text | Print | Product List | Glossary On
Versions: 1 2 3 4 5 6 7 8 9 10 11 12 13 14 15 16 17 18 19 20 21 22 23 24 25 26 27 28 29 30 31 32 33 34 35 36 37 38 39 40 41 42 43 44 45 46 47 48 49 50
000
ASUS41 KCLE 300710
RWRCLE
OHIO REGIONAL WEATHER ROUNDUP
NATIONAL WEATHER SERVICE CLEVELAND, OH
300 AM EDT SAT JUL 30 2016

NOTE: "FAIR" INDICATES FEW OR NO CLOUDS BELOW 12,000 FEET WITH NO
SIGNIFICANT WEATHER AND/OR OBSTRUCTIONS TO VISIBILITY.

OHZ001>008-015>018-024>027-034-035-043-044-300800-
   NORTHWEST OHIO

CITY           SKY/WX    TMP DP  RH WIND       PRES   REMARKS
DEFIANCE       PTCLDY    69  64  84 NE7       29.94S
FINDLAY        CLOUDY    72  67  84 NE6       29.92F HAZE
TOLEDO EXPRESS CLOUDY    68  63  84 NE8       29.93F
TOLEDO EXEC    CLOUDY    72  69  90 NE5       29.93F
LIMA           CLOUDY    69  69 100 NE5       29.92
$$

OHZ009>014-019>023-028>033-038-089-300800-
   NORTHEAST OHIO

CITY           SKY/WX    TMP DP  RH WIND       PRES   REMARKS
CLE-HOPKINS    CLOUDY    74  65  73 E5        29.96S
CLE-LAKEFRONT  LGT RAIN  73  67  81 NE6       29.93S
CUY CO. ARPT   NOT AVBL
LORAIN-ELYRIA  LGT RAIN  70  67  90 CALM      29.94S
ASHTABULA      CLOUDY    66  66 100 CALM      29.97S
AKRON-CANTON   MOCLDY    70  66  87 E5        29.95S FOG
WOOSTER        MOCLDY    65  64  97 SE3       29.95S FOG
MANSFIELD      CLOUDY    69  67  93 S6        29.95S
YOUNGSTOWN     CLOUDY    67  65  93 E3        29.96S
$$

OHZ042-051>053-060>062-070>072-077>081-300800-
  SOUTHWEST OHIO

CITY           SKY/WX    TMP DP  RH WIND       PRES   REMARKS
CINC-COVINGTON CLOUDY    70  69  97 SW3       29.91F
CINC-LUNKEN    CLEAR     69  69 100 CALM      29.91F FOG
HAMILTON       MOCLDY    70  68  93 CALM      29.92F FOG
DAYTON         MOCLDY    70  69  97 S6        29.93S
WRIGHT-PAT AFB CLOUDY    70  70 100 CALM      29.92R
DAYTON GENERAL MOCLDY    70  66  87 S6        29.91F
WILMINGTON     CLOUDY    69  68  96 CALM      29.92S
$$

OHZ036-037-039>041-045>050-054>059-063>069-073>076-082>088-300800-
  CENTRAL AND SOUTHEAST OHIO

CITY           SKY/WX    TMP DP  RH WIND       PRES   REMARKS
COLUMBUS       CLOUDY    71  69  93 E3        29.91F
OSU AIRPORT    CLOUDY    72  70  93 SE3       29.91F
BOLTON FIELD   CLOUDY    70  68  95 CALM      29.91F
RICKENBACK AFB CLOUDY    69  68  98 SE5       29.90F
NEWARK         LGT RAIN  70  69  97 CALM      29.92F FOG
MARION         CLOUDY    69  66  90 E5        29.94S
LANCASTER      MOCLDY    71  70  96 CALM      29.92F
ZANESVILLE     LGT RAIN  72  67  84 CALM      29.93F
NEW PHILLY     MOCLDY    71  67  87 CALM      29.94F FOG
$$




USA.gov is the U.S. government's official web portal to all federal, state and local government web resources and services.